[Date Prev][Date Next][Thread Prev][Thread Next] - [Date Index][Thread Index][Author Index]

Remainder of passes for August 1 (West Coast)



KF6YVI>DM12JU,NOCALL* [08/01/01 22:36:11]:CQ de Matt in San Diego,
kf6yvi@w6nwg.
#sca.ca

N7OFW>VK1EC2-15,NOCALL* [08/01/01 22:37:58]:=4709.25N/11919.11W_[DN07ID]
{UIV22}

N7OFW>VK1EC2-15,NOCALL* [08/01/01 22:38:03]:=4709.25N/11919.11W_[DN07ID]
{UIV22}

KD7LDB>CN85PJ,NOCALL* [08/01/01 22:39:27]:Lake Oswego, Oregon

KD6PLI>CM87XX,NOCALL* [08/01/01 22:40:30]:cq
N7OFW>VK1EC2-15,NOCALL* [08/01/01 22:40:32]:=4709.25N/11919.11W_[DN07ID]
{UIV22}

N7OFW>VK1EC2-15,NOCALL* [08/01/01 22:40:41]:=4709.25N/11919.11W_[DN07ID]
{UIV22}

N7OFW>VK1EC2-15,NOCALL* [08/01/01 22:41:16]:=4709.25N/11919.11W_[DN07ID]
{UIV22}

KD7LDB>CN85PJ,NOCALL* [08/01/01 22:41:25]:73 all via Iss!4524.34N/12241.18W-
73s

N7OFW>VK1EC2-15,NOCALL* [08/01/01 22:41:43]:=4709.25N/11919.11W_[DN07ID]
{UIV22}

N7OFW>VK1EC2-15,NOCALL* [08/01/01 22:42:07]:=4709.25N/11919.11W_[DN07ID]
{UIV22}

N7OZ>DN20ES,NOCALL* [08/02/01 00:16:29]:

N7OZ>DN20ES,NOCALL* [08/02/01 00:17:13]:

N7OZ>DN20ES,NOCALL* [08/02/01 00:17:16]:=4045.18N/11535.45W
SpringCreek,Nevada

N7OZ>DN20ES,NOCALL* [08/02/01 00:17:25]:

N7OZ>DN20ES,NOCALL* [08/02/01 00:17:36]:

VE7FM-7>TY2QSP,NOCALL* [08/02/01 00:17:55]:`479l [/>"WALK-N-TALK" 5W QRP

N7OZ>DN20ES,NOCALL* [08/02/01 00:18:06]:

N7OZ>DN20ES,NOCALL* [08/02/01 00:18:14]:

N7OZ>DN20ES,NOCALL* [08/02/01
00:18:18]:N7OZ:Jim>SpringCreek,Nevada.>M.A.R.S.Cal
l AAR9WT Aboard Outpost Alpha One Packet
System..e-mail>n7oz@elko-nv.com>>Over!

K7SAO>CN85JI,NOCALL* [08/02/01 00:18:50]:

N7OZ>DN20ES,NOCALL* [08/02/01 00:18:52]:

N7OZ>DN20ES,NOCALL* [08/02/01 00:19:00]:

N7OZ>DN20ES,NOCALL* [08/02/01
00:19:04]:N7OZ:Jim>SpringCreek,Nevada.>M.A.R.S.Cal
l AAR9WT Aboard Outpost Alpha One Packet
System..e-mail>n7oz@elko-nv.com>>Over!

N7OZ>DN20ES,NOCALL* [08/02/01 00:19:47]:gm lonny

K7SAO>CN85JI,NOCALL* [08/02/01 00:19:58]:

K7SAO>CN85JI,NOCALL* [08/02/01 00:20:01]:=4520.64N/12311.32W Stephen,
Yamhill, O
regon

KE6IXD>CM98QJ,NOCALL* [08/02/01 05:04:11]:!3824.15N/12039.12Wv/Hello From
Fran i
n Pine Grove Ca.

N6CO>CM98QJ,NOCALL* [08/02/01 05:04:34]:ISS
1 25544U 98067A   01214.37675569  .00015562  00000-0  21025-3 0  2902
2 25544  51.6377 215.4420 0011435 328.0067 172.9057 15.57886238154294

N6CO>CM98QJ,NOCALL* [08/02/01 05:05:04]:

KD6PLI>CM87XX,NOCALL* [08/02/01 05:05:25]:cq
N6CO>CM98QJ,NOCALL* [08/02/01 05:05:30]:gm all

N6CO>CM98QJ,NOCALL* [08/02/01 05:06:00]:ISS
1 25544U 98067A   01214.37675569  .00015562  00000-0  21025-3 0  2902
2 25544  51.6377 215.4420 0011435 328.0067 172.9057 15.57886238154294

N6CO>CM98QJ,NOCALL* [08/02/01 05:06:34]:               I      I
          _____I___  (*)
         /   !     \  I
 ______/_____!______\ I    {~~~~~~~~~~~~~}
(      !   - !       }I    I     N6CO    I+
['/~~\_!_____!__/~~\_|],-[<__/~~\____/~~\I]
  \__/          \__/         \__/    \__/

N6CO>CM98QJ,NOCALL* [08/02/01 05:06:38]:  l     l
 (+)  __I_I_____
  I  /Pine Grove\
  I /_______!_Ca_\______
  I {  Dave !-    !  __ )
  I_I_/  \__! N6CO!_/  \I
      \__/          \__/

KD6PLI>CM87XX,NOCALL* [08/02/01 05:07:00]:!3757.24N/12202.84Wy/  CQ east of
the
sierra's

N6CO>CM98QJ,NOCALL* [08/02/01 05:07:06]:            M1 ABRAMS

            __.---.___
        ___/__\_O_/___\___
       /___ __________ ___\
       |===|\________/|===|
_______|===|__________|===|______

N6CO>CM98QJ,NOCALL* [08/02/01 05:07:11]:            M1 ABRAMS

            __.---.___
        ___/__\_O_/___\___
       /___ __________ ___\
       |===|\________/|===|
_______|===|__________|===|______

N6CO>CM98QJ,NOCALL* [08/02/01 05:07:18]:---------------+---------------
          ___ /^^[___              _
         /|^+----+   |#___________//
       ( -+ |____|   _______-----+/
        ==_________--'            \
          ~_|___|__

N6CO>CM98QJ,NOCALL* [08/02/01 05:07:33]:ISS
1 25544U 98067A   01214.37675569  .00015562  00000-0  21025-3 0  2902
2 25544  51.6377 215.4420 0011435 328.0067 172.9057 15.57886238154294

N7OZ>DN20ES,NOCALL* [08/02/01 05:08:08]:Greetings to the Santa Cruz
Astronomy Cl
ub!Clear Skies & Happy Viewing!From N7OZ via ISS :-)

N6CO>CM98QJ,NOCALL* [08/02/01 05:08:13]:gm n7zo

N6CO>CM98QJ,NOCALL* [08/02/01 05:08:24]:ISS
1 25544U 98067A   01214.37675569  .00015562  00000-0  21025-3 0  2902
2 25544  51.6377 215.4420 0011435 328.0067 172.9057 15.57886238154294

N7OZ>DN20ES,NOCALL* [08/02/01 05:08:32]:same to ya dave

N7OZ>DN20ES,NOCALL* [08/02/01 05:09:20]:iss vis hr

K6MIR>CM98QJ,NOCALL* [08/02/01 05:10:11]:




----
Via the sarex mailing list at AMSAT.ORG courtesy of AMSAT-NA.
To unsubscribe, send "unsubscribe sarex" to Majordomo@amsat.org



AMSAT Top AMSAT Home